NEW CARLISLE, QUE current weather conditions

sailwx.info

Wind from 330 at 5 knots

Air temperature 4.8° C
Dewpoint 2.3° C

Last reported at 2019-Oct-16 05:00 UTC.
Time now 2019-Oct-16 05:44 UTC

Location: N 48°01' W 065°20'.
View on Google Maps.

See reports from other nearby stations

  
Tides and Currents Weather Stations Pressure Air Temp Water Temp Dewpoint Dewpoint Depression Visibility Wind Speed Wind Dir Waves Ship Positions
date/time (UTC)wind fromknots sea level pressurealtimeterstation pressurevisibilityair tempwater tempwave heightnotes
2019-Oct-16 05:00 330 5 4.8
2019-Oct-16 04:00 320 5 5.4
2019-Oct-16 03:00 310 5 4.5
2019-Oct-16 02:00 260 0 4.8
2019-Oct-16 01:00 320 1 4.2
2019-Oct-16 00:00 340 2 4.9
2019-Oct-15 23:00 330 2 5.8
2019-Oct-15 22:00 310 2 8.2
2019-Oct-15 21:00 280 5 11.3
2019-Oct-15 20:00 270 8 gusting 14 12.4
2019-Oct-15 19:00 270 9 gusting 15 12.7
2019-Oct-15 18:00 270 11 gusting 18 12.8
2019-Oct-15 17:00 270 9 gusting 14 11.5
2019-Oct-15 16:00 280 8 gusting 17 12.2
2019-Oct-15 15:00 290 9 gusting 18 11.0
2019-Oct-15 10:00 250 2 10.9
2019-Oct-15 09:00 180 2 10.9
2019-Oct-15 08:00 140 2 11.0
2019-Oct-15 07:00 130 2 10.5
2019-Oct-15 06:00 120 4 11.0
2019-Oct-15 05:00 090 1 10.6
2019-Oct-15 04:00 160 4 10.9
2019-Oct-15 03:00 080 2 11.2
2019-Oct-15 02:00 120 5 11.0
2019-Oct-15 01:00 080 2 11.2
2019-Oct-15 00:00 130 6 11.2
2019-Oct-14 23:00 080 2 11.7
2019-Oct-14 22:00 070 5 11.6
2019-Oct-14 21:00 070 5 11.8
2019-Oct-14 20:00 090 5 13.3
2019-Oct-14 19:00 070 4 12.8
2019-Oct-14 18:00 090 4 13.7
2019-Oct-14 17:00 100 6 13.0
2019-Oct-14 16:00 110 4 11.9
2019-Oct-14 15:00 130 4 11.7
2019-Oct-14 14:00 110 4 11.7
2019-Oct-14 13:00 160 1 11.4
2019-Oct-14 12:00 100 2 11.0
2019-Oct-14 11:00 110 0 10.0
2019-Oct-14 10:00 100 1 10.5
2019-Oct-14 09:00 100 0 10.4
2019-Oct-14 08:00 100 0 10.4
2019-Oct-14 07:00 120 1 10.4
2019-Oct-14 06:00 110 0 10.4
2019-Oct-14 05:00 080 0 10.6